Clarksburg, WV

3:25 PM EST on December 09, 2019 (GMT -0500)
Benedum

Weather History for KCKB - October, 2019

Change the Weather History Date:

Thursday, October 10, 2019

  Actual Average Record
Temperature  
Mean Temperature 64 °F -  
Max Temperature 78 °F 67 °F 87 °F (1939)
Min Temperature 50 °F 43 °F 26 °F (1964)
Degree Days  
Heating Degree Days 1    
Month to date heating degree days 8  
Growing Degree Days 14 (Base 50)    
Moisture  
Dew Point 48 °F    
Average Humidity 60    
Maximum Humidity 83    
Minimum Humidity 37    
Precipitation  
Precipitation 0.00 in - - ()
Month to date precipitation 0.74  
Year to date precipitation 32.81  
Sea Level Pressure  
Sea Level Pressure 30.16 in    
Wind  
Wind Speed 3 mph (ENE)    
Max Wind Speed 10 mph    
Max Gust Speed 14 mph    
Visibility 10 miles    
Events      
Averages and records for this station are not official NWS values.
T = Trace of Precipitation, MM = Missing Value Source: NWS Daily Summary

Daily Weather History Graph

Daily Weather History Graph

Search for Another Location

Airport or City:

Astronomy

Oct. 10, 2019 Rise Set
Actual Time 7:25 AM EDT 6:49 PM EDT
Civil Twilight 6:58 AM EDT 7:16 PM EDT
Nautical Twilight 6:27 AM EDT 7:47 PM EDT
Astronomical Twilight 5:56 AM EDT 8:18 PM EDT
Moon 5:49 PM EDT (10/10) 4:09 AM EDT (10/10)
Length of Visible Light 12h 18m
Length of Day
11h 24m
Waxing Gibbous, 91% of the Moon is Illuminated
Oct 10
Waxing Gibbous
Oct 13
Full
Oct 21
Last Quarter
Oct 27
New
Nov 4
First Quarter

Hourly Weather History & Observations

Time (EDT) Temp. Dew Point Humidity Pressure Visibility Wind Dir Wind Speed Gust Speed Precip Events Conditions
12:53 AM 59.0 °F 48.0 °F 67% 30.17 in 10.0 mi Calm Calm - N/A   Clear
1:53 AM 55.9 °F 48.0 °F 75% 30.16 in 10.0 mi East 3.5 mph - N/A   Clear
2:53 AM 55.0 °F 46.9 °F 74% 30.16 in 10.0 mi Calm Calm - N/A   Clear
3:53 AM 51.1 °F 46.0 °F 83% 30.16 in 10.0 mi Calm Calm - N/A   Clear
4:53 AM 52.0 °F 46.9 °F 83% 30.17 in 10.0 mi NNE 3.5 mph - N/A   Scattered Clouds
5:53 AM 51.1 °F 45.0 °F 80% 30.18 in 10.0 mi NNE 3.5 mph - N/A   Clear
6:53 AM 53.1 °F 46.0 °F 77% 30.20 in 10.0 mi Calm Calm - N/A   Overcast
7:53 AM 54.0 °F 46.9 °F 77% 30.21 in 10.0 mi Calm Calm - N/A   Overcast
8:53 AM 59.0 °F 46.0 °F 62% 30.22 in 10.0 mi Variable 3.5 mph - N/A   Overcast
9:53 AM 63.0 °F 46.9 °F 56% 30.22 in 10.0 mi East 5.8 mph - N/A   Clear
10:53 AM 66.9 °F 48.0 °F 51% 30.21 in 10.0 mi East 4.6 mph - N/A   Clear
11:53 AM 72.0 °F 50.0 °F 46% 30.20 in 10.0 mi ENE 5.8 mph - N/A   Clear
12:53 PM 73.9 °F 51.1 °F 45% 30.18 in 10.0 mi Calm Calm - N/A   Clear
1:53 PM 75.9 °F 51.1 °F 42% 30.16 in 10.0 mi Calm Calm - N/A   Clear
2:53 PM 77.0 °F 52.0 °F 42% 30.13 in 10.0 mi NNE 3.5 mph - N/A   Clear
3:53 PM 75.9 °F 51.1 °F 42% 30.13 in 10.0 mi Calm Calm - N/A   Clear
4:53 PM 78.1 °F 50.0 °F 37% 30.12 in 10.0 mi NE 3.5 mph - N/A   Scattered Clouds
6:53 PM 71.1 °F 50.0 °F 47% 30.11 in 10.0 mi NNE 4.6 mph - N/A   Clear
7:53 PM 66.0 °F 50.0 °F 56% 30.11 in 10.0 mi NE 4.6 mph - N/A   Clear
8:53 PM 66.0 °F 50.0 °F 56% 30.12 in 10.0 mi East 4.6 mph - N/A   Clear
9:53 PM 63.0 °F 48.9 °F 60% 30.12 in 10.0 mi East 4.6 mph - N/A   Clear
10:53 PM 62.1 °F 48.0 °F 60% 30.13 in 10.0 mi East 3.5 mph - N/A   Clear
11:53 PM 59.0 °F 48.0 °F 67% 30.13 in 10.0 mi Calm Calm - N/A   Clear